Location: Izdebno
(52.6670°N, 16.2170°E)
Time: 02:38:53
(UTC+02:00)

Transit 4A - Pass Details

Date: 22 February 2024
Orbit: 871 x 972 km, 66.8° (Epoch: 22 April)

Event Time Altitude Azimuth Distance (km) Brightness Sun altitude
Rises 08:04:16 0° 314° (NW) 3,538 10.3 8.4°
Reaches altitude 10° 08:07:10 10° 325° (NW) 2,579 9.7 8.7°
Maximum altitude 08:12:18 29° 25° (NNE) 1,580 9.2 9.4°
Drops below altitude 10° 08:17:20 10° 84° (E) 2,532 11.2 10.1°
Sets 08:20:09 0° 96° (E) 3,463 12.1 10.4°
